Location: Hamburg
(53.5554°N, 9.9941°E)
Time: 08:21:40
(UTC+01:00)

ISS - Visible Passes

Search period start: 17 February 2019 00:00
Search period end: 27 February 2019 00:00
Orbit: 403 x 411 km, 51.6° (Epoch: 17 February)

Date Brightness Start Highest point End Pass type
(mag) Time Alt. Az. Time Alt. Az. Time Alt. Az.
23 Feb -0.6 06:36:06 10° SSE 06:37:05 11° SE 06:38:04 10° ESE visible
25 Feb -1.3 06:27:49 10° SSW 06:30:14 19° SSE 06:32:40 10° E visible
26 Feb -1.0 05:37:17 10° S 05:38:57 13° SE 05:40:37 10° ESE visible
